When you browse on this site, cookies collect data to enhance your experience and personalize the content and advertising you see.
Visit our Privacy Policy to learn more. By continuing to use the site, you agree to this use of cookies and data.
  • En España
  • Lista de países
  • Para 7 días
  • Temperatura del agua
  • El tiempo en el mapa
  • Informadores
  • user-avatar
    Iniciar sesión

    Tiempo cada hora Praia

    Hoy, 6 Junio, Sábado

    Tiempo Temperatura Precipitaciones Viento Presión Humedad
    00:00 +32°C° 0 mm 6 mps 683 mmHg 12%
    01:00 +30°C° 0 mm 5 mps 683 mmHg 12%
    02:00 +29°C° 0 mm 5 mps 683 mmHg 13%
    03:00 +28°C° 0 mm 4 mps 683 mmHg 13%
    04:00 +27°C° 0 mm 4 mps 683 mmHg 14%
    05:00 +26°C° 0 mm 4 mps 682 mmHg 14%
    06:00 +28°C° 0 mm 4 mps 683 mmHg 13%
    07:00 +31°C° 0 mm 3 mps 684 mmHg 11%
    08:00 +34°C° 0 mm 4 mps 685 mmHg 11%
    09:00 +36°C° 0 mm 4 mps 685 mmHg 10%
    10:00 +38°C° 0 mm 4 mps 685 mmHg 8%
    11:00 +41°C° 0 mm 5 mps 686 mmHg 7%
    12:00 +42°C° 0 mm 4 mps 685 mmHg 7%
    13:00 +43°C° 0 mm 4 mps 685 mmHg 7%
    14:00 +43°C° 0 mm 4 mps 684 mmHg 7%
    15:00 +43°C° 0 mm 4 mps 684 mmHg 7%
    16:00 +43°C° 0 mm 5 mps 683 mmHg 7%
    17:00 +42°C° 0 mm 5 mps 683 mmHg 7%
    18:00 +40°C° 0 mm 5 mps 683 mmHg 8%
    19:00 +37°C° 0 mm 4 mps 682 mmHg 10%
    20:00 +34°C° 0 mm 4 mps 682 mmHg 11%
    21:00 +33°C° 0 mm 4 mps 683 mmHg 12%
    22:00 +32°C° 0 mm 5 mps 683 mmHg 13%
    23:00 +30°C° 0 mm 5 mps 683 mmHg 13%

    Mañana, 7 Junio, Domingo

    Tiempo Temperatura Precipitaciones Viento Presión Humedad
    00:00 +30°C° 0 mm 5 mps 682 mmHg 13%
    01:00 +29°C° 0 mm 4 mps 682 mmHg 13%
    02:00 +29°C° 0 mm 4 mps 682 mmHg 13%
    03:00 +28°C° 0 mm 4 mps 682 mmHg 14%
    04:00 +28°C° 0 mm 4 mps 682 mmHg 14%
    05:00 +27°C° 0 mm 3 mps 682 mmHg 15%
    06:00 +29°C° 0 mm 3 mps 682 mmHg 14%
    07:00 +31°C° 0 mm 3 mps 683 mmHg 12%
    08:00 +33°C° 0 mm 3 mps 684 mmHg 11%
    09:00 +35°C° 0 mm 3 mps 684 mmHg 10%
    10:00 +37°C° 0 mm 4 mps 685 mmHg 9%
    11:00 +40°C° 0 mm 4 mps 685 mmHg 7%
    12:00 +41°C° 0 mm 4 mps 684 mmHg 7%
    13:00 +42°C° 0 mm 3 mps 683 mmHg 6%
    14:00 +42°C° 0 mm 3 mps 683 mmHg 6%
    15:00 +42°C° 0 mm 4 mps 682 mmHg 5%
    16:00 +42°C° 0 mm 4 mps 682 mmHg 5%
    17:00 +42°C° 0 mm 5 mps 681 mmHg 5%
    18:00 +40°C° 0 mm 5 mps 681 mmHg 6%
    19:00 +36°C° 0 mm 5 mps 681 mmHg 7%
    20:00 +34°C° 0 mm 5 mps 681 mmHg 9%
    21:00 +33°C° 0 mm 5 mps 681 mmHg 8%
    22:00 +33°C° 0 mm 6 mps 682 mmHg 8%
    23:00 +32°C° 0 mm 6 mps 682 mmHg 8%

    Pasado mañana, 8 Junio, Lunes

    Tiempo Temperatura Precipitaciones Viento Presión Humedad
    00:00 +30°C° 0 mm 5 mps 681 mmHg 8%
    01:00 +29°C° 0 mm 4 mps 681 mmHg 8%
    02:00 +28°C° 0 mm 4 mps 680 mmHg 8%
    03:00 +27°C° 0 mm 3 mps 680 mmHg 8%
    04:00 +26°C° 0 mm 3 mps 680 mmHg 7%
    05:00 +25°C° 0 mm 3 mps 680 mmHg 7%
    06:00 +27°C° 0 mm 2 mps 680 mmHg 6%
    07:00 +29°C° 0 mm 2 mps 681 mmHg 6%
    08:00 +30°C° 0 mm 2 mps 682 mmHg 5%
    09:00 +34°C° 0 mm 2 mps 682 mmHg 4%
    10:00 +37°C° 0 mm 3 mps 683 mmHg 4%
    11:00 +41°C° 0 mm 4 mps 683 mmHg 3%
    12:00 +41°C° 0 mm 4 mps 683 mmHg 3%
    13:00 +42°C° 0 mm 3 mps 682 mmHg 3%
    14:00 +43°C° 0 mm 3 mps 682 mmHg 4%
    15:00 +42°C° 0 mm 2 mps 681 mmHg 4%
    16:00 +42°C° 0 mm 2 mps 681 mmHg 4%
    17:00 +42°C° 0 mm 2 mps 680 mmHg 4%
    18:00 +39°C° 0 mm 2 mps 680 mmHg 5%
    19:00 +36°C° 0 mm 2 mps 680 mmHg 6%
    20:00 +31°C° 0 mm 3 mps 680 mmHg 6%
    21:00 +31°C° 0 mm 3 mps 680 mmHg 7%
    22:00 +30°C° 0 mm 3 mps 680 mmHg 7%
    23:00 +29°C° 0 mm 3 mps 680 mmHg 7%

    9 Junio, Martes

    Tiempo Temperatura Precipitaciones Viento Presión Humedad
    00:00 +28°C° 0 mm 3 mps 680 mmHg 8%
    01:00 +27°C° 0 mm 2 mps 679 mmHg 10%
    02:00 +25°C° 0 mm 2 mps 679 mmHg 11%
    03:00 +26°C° 0 mm 3 mps 679 mmHg 14%
    04:00 +26°C° 0 mm 4 mps 679 mmHg 17%
    05:00 +26°C° 0 mm 4 mps 680 mmHg 19%
    06:00 +28°C° 0 mm 5 mps 681 mmHg 20%
    07:00 +30°C° 0 mm 6 mps 681 mmHg 20%
    08:00 +32°C° 0 mm 7 mps 682 mmHg 20%
    09:00 +34°C° 0 mm 7 mps 683 mmHg 20%
    10:00 +38°C° 0 mm 7 mps 683 mmHg 19%
    11:00 +40°C° 0 mm 7 mps 683 mmHg 19%
    12:00 +41°C° 0 mm 5 mps 683 mmHg 16%
    13:00 +40°C° 0 mm 3 mps 682 mmHg 13%
    14:00 +41°C° 0 mm 1 mps 682 mmHg 10%
    15:00 +41°C° 0 mm 1 mps 682 mmHg 10%
    16:00 +41°C° 0 mm 1 mps 681 mmHg 9%
    17:00 +42°C° 0 mm 1 mps 681 mmHg 9%
    18:00 +39°C° 0 mm 1 mps 681 mmHg 10%
    19:00 +36°C° 0 mm 2 mps 680 mmHg 11%
    20:00 +34°C° 0 mm 2 mps 680 mmHg 12%
    21:00 +34°C° 0 mm 3 mps 680 mmHg 12%
    22:00 +33°C° 0 mm 3 mps 681 mmHg 12%
    23:00 +33°C° 0 mm 4 mps 681 mmHg 12%

    10 Junio, Miércoles

    Tiempo Temperatura Precipitaciones Viento Presión Humedad
    00:00 +31°C° 0 mm 3 mps 681 mmHg 13%
    01:00 +30°C° 0 mm 3 mps 680 mmHg 14%
    02:00 +29°C° 0 mm 3 mps 680 mmHg 15%
    03:00 +28°C° 0 mm 3 mps 680 mmHg 18%
    04:00 +27°C° 0 mm 3 mps 680 mmHg 21%
    05:00 +27°C° 0 mm 3 mps 680 mmHg 24%
    06:00 +28°C° 0 mm 5 mps 681 mmHg 30%
    07:00 +29°C° 0 mm 7 mps 682 mmHg 36%
    08:00 +31°C° 0 mm 9 mps 683 mmHg 41%
    09:00 +33°C° 0 mm 9 mps 683 mmHg 37%
    10:00 +35°C° 0 mm 8 mps 683 mmHg 34%
    11:00 +38°C° 0 mm 8 mps 684 mmHg 30%
    12:00 +39°C° 0 mm 6 mps 683 mmHg 25%
    13:00 +41°C° 0 mm 4 mps 683 mmHg 19%
    14:00 +41°C° 0 mm 2 mps 682 mmHg 14%
    15:00 +41°C° 0 mm 2 mps 682 mmHg 14%
    16:00 +40°C° 0 mm 3 mps 682 mmHg 14%
    17:00 +40°C° 0 mm 3 mps 682 mmHg 14%
    18:00 +37°C° 0 mm 5 mps 681 mmHg 23%
    19:00 +33°C° 0 mm 6 mps 681 mmHg 31%
    20:00 +29°C° 0 mm 8 mps 681 mmHg 40%
    21:00 +28°C° 0 mm 6 mps 681 mmHg 45%
    22:00 +26°C° 0 mm 5 mps 681 mmHg 50%
    23:00 +25°C° 0 mm 3 mps 681 mmHg 55%

    11 Junio, Jueves

    Tiempo Temperatura Precipitaciones Viento Presión Humedad
    00:00 +25°C° 0 mm 3 mps 681 mmHg 55%
    01:00 +25°C° 0 mm 4 mps 681 mmHg 54%
    02:00 +25°C° 0 mm 4 mps 681 mmHg 53%
    03:00 +25°C° 0 mm 3 mps 681 mmHg 54%
    04:00 +24°C° 0 mm 3 mps 681 mmHg 55%
    05:00 +24°C° 0 mm 2 mps 681 mmHg 55%
    06:00 +26°C° 0 mm 3 mps 682 mmHg 51%
    07:00 +27°C° 0 mm 3 mps 683 mmHg 47%
    08:00 +28°C° 0 mm 4 mps 683 mmHg 43%
    09:00 +31°C° 0 mm 3 mps 683 mmHg 37%
    10:00 +34°C° 0 mm 3 mps 684 mmHg 31%
    11:00 +37°C° 0 mm 3 mps 684 mmHg 25%
    12:00 +38°C° 0 mm 2 mps 683 mmHg 22%
    13:00 +39°C° 0 mm 2 mps 683 mmHg 20%
    14:00 +40°C° 0 mm 1 mps 682 mmHg 17%
    15:00 +40°C° 0 mm 2 mps 682 mmHg 17%
    16:00 +40°C° 0 mm 2 mps 682 mmHg 18%
    17:00 +39°C° 0 mm 3 mps 682 mmHg 18%
    18:00 +36°C° 0 mm 4 mps 681 mmHg 28%
    19:00 +32°C° 0 mm 4 mps 681 mmHg 38%
    20:00 +28°C° 0 mm 5 mps 680 mmHg 48%
    21:00 +27°C° 0 mm 5 mps 681 mmHg 50%
    22:00 +27°C° 0 mm 4 mps 681 mmHg 52%
    23:00 +26°C° 0 mm 4 mps 681 mmHg 54%
    Mostrar más